Progress Software Current Ratio 2006-2020 | PRGS

Progress Software current ratio from 2006 to 2020. Current ratio can be defined as a liquidity ratio that measures a company's ability to pay short-term obligations.
Progress Software Current Ratio Historical Data
Date Current Assets Current Liabilities Current Ratio
2020-05-31 $0.29B $0.23B 1.29
2020-02-29 $0.28B $0.23B 1.19
2019-11-30 $0.29B $0.24B 1.18
2019-08-31 $0.24B $0.22B 1.10
2019-05-31 $0.20B $0.20B 1.00
2019-02-28 $0.22B $0.18B 1.19
2018-11-30 $0.23B $0.19B 1.24
2018-08-31 $0.20B $0.19B 1.05
2018-05-31 $0.20B $0.20B 1.03
2018-02-28 $0.24B $0.20B 1.17
2017-11-30 $0.26B $0.21B 1.27
2017-08-31 $0.26B $0.21B 1.27
2017-05-31 $0.31B $0.21B 1.48
2017-02-28 $0.34B $0.22B 1.52
2016-11-30 $0.34B $0.20B 1.65
2016-08-31 $0.31B $0.20B 1.58
2016-05-31 $0.30B $0.20B 1.53
2016-02-29 $0.33B $0.20B 1.63
2015-11-30 $0.32B $0.20B 1.62
2015-08-31 $0.33B $0.20B 1.67
2015-05-31 $0.31B $0.20B 1.59
2015-02-28 $0.31B $0.19B 1.61
2014-11-30 $0.38B $0.15B 2.45
2014-08-31 $0.35B $0.15B 2.38
2014-05-31 $0.32B $0.15B 2.14
2014-02-28 $0.35B $0.16B 2.14
2013-11-30 $0.34B $0.17B 2.05
2013-08-31 $0.34B $0.16B 2.05
2013-05-31 $0.36B $0.17B 2.16
2013-02-28 $0.43B $0.18B 2.39
2012-11-30 $0.53B $0.24B 2.19
2012-08-31 $0.47B $0.22B 2.17
2012-05-31 $0.45B $0.23B 1.96
2012-02-29 $0.45B $0.25B 1.84
2011-11-30 $0.41B $0.23B 1.80
2011-08-31 $0.47B $0.23B 2.05
2011-05-31 $0.52B $0.23B 2.25
2011-02-28 $0.52B $0.24B 2.16
2010-11-30 $0.48B $0.24B 2.04
2010-08-31 $0.39B $0.21B 1.85
2010-05-31 $0.39B $0.22B 1.79
2010-02-28 $0.35B $0.25B 1.41
2009-11-30 $0.36B $0.23B 1.58
2009-08-31 $0.31B $0.22B 1.40
2009-05-31 $0.28B $0.23B 1.22
2009-02-28 $0.26B $0.23B 1.10
2008-11-30 $0.25B $0.24B 1.02
2008-08-31 $0.35B $0.21B 1.66
2008-05-31 $0.38B $0.22B 1.72
2008-02-29 $0.35B $0.22B 1.57
2007-11-30 $0.46B $0.23B 2.03
2007-08-31 $0.42B $0.21B 1.99
2007-05-31 $0.40B $0.21B 1.86
2007-02-28 $0.36B $0.21B 1.71
2006-11-30 $0.36B $0.21B 1.68
2006-08-31 $0.34B $0.20B 1.74
2006-05-31 $0.33B $0.20B 1.66
2006-02-28 $0.33B $0.21B 1.53
2005-11-30 $0.36B $0.18B 2.04
2005-08-31 $0.34B $0.17B 1.99
2005-05-31 $0.30B $0.17B 1.75
2005-02-28 $0.30B $0.18B 1.68
Sector Industry Market Cap Revenue
Computer and Technology Computer Software $1.610B $0.413B
Progress offers the leading platform for developing and deploying mission-critical business applications. Progress empowers enterprises and ISVs to build and deliver cognitive-first applications that harness big data to derive business insights and competitive advantage. Progress offers leading technologies for easily building powerful user interfaces across any type of device, a reliable, scalable and secure backend platform to deploy modern applications, leading data connectivity to all sources, and award-winning predictive analytics that brings the power of machine learning to any organization.
Stock Name Country Market Cap PE Ratio
Microsoft (MSFT) United States $1000.000B 37.66
Adobe (ADBE) United States $214.876B 58.33
SAP SE (SAP) Germany $193.542B 35.10
Salesforce, Inc (CRM) United States $183.074B 250.85
Oracle (ORCL) United States $171.785B 15.99
Intuit (INTU) United States $81.282B 64.80
VMware (VMW) United States $59.995B 30.99
Autodesk (ADSK) United States $52.493B 141.70
Dassault Systemes SA (DASTY) France $47.692B 52.67
Cadence Design Systems (CDNS) United States $31.161B 30.79
Synopsys (SNPS) United States $30.528B 66.06
ANSYS (ANSS) United States $26.982B 63.43
Citrix Systems (CTXS) United States $17.276B 29.08
SS&C Technologies Holdings (SSNC) United States $14.939B 15.10
Open Text (OTEX) Canada $12.316B 43.60
PTC (PTC) United States $9.990B 46.93
Pegasystems (PEGA) United States $9.515B 0.00
Trend Micro (TMICY) Japan $8.527B 30.80
Nuance Communications (NUAN) United States $7.968B 39.35
Aspen Technology (AZPN) United States $6.653B 28.69
Manhattan Associates (MANH) United States $6.176B 76.55
Descartes Systems Group (DSGX) Canada $4.768B 120.08
Konami (KNMCY) Japan $4.323B 24.04
Blackbaud (BLKB) United States $3.175B 47.40
ACI Worldwide (ACIW) United States $3.151B 46.86
Verint Systems (VRNT) United States $2.898B 19.62
Cornerstone OnDemand (CSOD) United States $2.305B 42.02
Bottomline Technologies (EPAY) United States $2.169B 129.97
CommVault Systems (CVLT) United States $2.044B 80.13
Sapiens (SPNS) Israel $1.607B 40.51
PROS Holdings (PRO) United States $1.439B 0.00
Simulations Plus (SLP) United States $1.285B 133.50
MicroStrategy (MSTR) United States $1.249B 48.69
Rosetta Stone (RST) United States $0.646B 0.00
Magic Software Enterprises (MGIC) Israel $0.626B 20.32
QAD (QADB) United States $0.575B 2816.00
American Software (AMSWA) United States $0.540B 64.00
Canaan (CAN) China $0.429B 0.00
Avid Technology (AVID) United States $0.368B 30.04
Icad Inc (ICAD) United States $0.221B 0.00
OptimizeRx (OPRX) United States $0.219B 0.00
GlobalSCAPE (GSB) United States $0.178B 14.02
Smith Micro Software (SMSI) United States $0.175B 12.44
ServiceSource (SREV) United States $0.149B 0.00
Park City (PCYG) United States $0.093B 94.60
Neonode (NEON) Sweden $0.081B 0.00
NetSol Technologies (NTWK) United States $0.038B 11.67
CounterPath (CPAH) Canada $0.028B 0.00
BSQUARE (BSQR) United States $0.019B 0.00
GSE Systems (GVP) United States $0.019B 18.76